Weather in Naleczow

Poland     51°17′15″N   22°12′51″E
temp.,
°C
wind,
m/s
gust,
m/s
humid.,
%
clouds,
%
prec.,
mm/h
press.,
hPa
HPBL,
m
21 april, wed
wed2123:00+7wnw11785 0.0 101210
02:00+6wsw33825 0.0 101239
05:00+5wsw348499 0.0 101251
08:00+9wsw3571100 0.0 1012245
11:00+13w565943 0.5 10111156
14:00+15w364669 1.1 10102261
17:00+15w485366 0.8 10102328
20:00+10w347156 0.9 101152
22 april, thu
thu2223:00+10wsw357249 0.0 1011108
02:00+7sw357864 0.0 101290
05:00+6sw411875 0.1 1011246
08:00+7nw588698 0.3 1013650
11:00+4wnw4895100 0.6 1015589
14:00+7w6961100 1.3 10151433
17:00+9w6104877 0.0 10142603
20:00+4w48670 0.0 1017150
23 april, fri
fri2323:00+2wsw410855 0.0 1018301
02:00+1w513860 0.0 1018383
05:00+1w614735 0.0 1018493
08:00+4wnw610638 0.0 1019706
11:00+7wnw7952100 0.4 10191857
14:00+9wnw71044100 0.9 10182377
17:00+6w8980100 0.5 10191007
20:00+2nnw9148878 1.1 1021875
24 april, sat
sat2423:000wsw4109314 0.1 1022307
02:00−1w410885 0.2 1022202
05:00−2w411866 0.0 1023236
08:00+3wnw59670 0.0 1023474
11:00+8wnw7940100 0.0 10232806
14:00+9wnw71036100 0.0 10212738
17:00+9wnw694594 0.0 10212364
20:00+4w3359100 0.0 102126
25 april, sun
sun2523:00+3nw4688100 0.1 1021450
02:00+1nnw3791100 0.9 1022347
05:00−2nw49905 0.0 1024224
08:00+2nw597221 0.0 1025747
11:00+6wnw5750100 0.1 10241941
14:00+7wnw6947100 0.2 10232272
17:00+8wnw6104889 0.0 10212243
20:00+4wnw4967100 0.3 1022148